{"data":{"norad_id":48618,"intl_designator":"2021-042A","name":"SBIRS GEO-5 (USA 315)","alt_names":[],"object_type":"PAYLOAD","status":"ACTIVE","operator":null,"country":"US","launch_date":"2021-05-18","launch_site_code":"AFETR","launch_vehicle":null,"mission":null,"orbit_class":"UNKNOWN","rcs_meters":null,"size_class":null,"mass_kg":null,"dimensions":null,"purposes":["comms"],"wikipedia_slug":null,"has_3d_model":false,"image_url":null,"decayed_at":null,"tle_current":{"epoch":"2026-09-19T21:06:19.132704Z","epoch_age_seconds":75549,"freshness":"FRESH","line1":"1 48618U 21042A   26262.87938811 -.00000270  00000+0  00000+0 0  9997","line2":"2 48618   4.9925 329.8613 0001821 209.8691 229.4311  1.00271917 19726","mean_motion":1.00271917,"eccentricity":0.0001821,"inclination_deg":4.9925,"raan_deg":329.8613,"arg_perigee_deg":209.8691,"mean_anomaly_deg":229.4311,"bstar":0,"rev_number":1972,"period_min":1436.0950135221,"perigee_km":35778.879765888,"apogee_km":35794.236147791,"semimajor_km":42164.69495684,"source":"CELESTRAK","updated_at":"2026-09-20T09:00:35.297703Z"}}}